• In Hungary
  • List of Countries
  • For 7 days
  • Water Temperature
  • Satellite Maps
  • Weather Map
  • News
  • Weather Widgets
  • user-avatar
    Login

    Hourly Weather Podosinovka

    Today, 23 October, Tuesday

    Time Temperature Precipitation Wind Pressure Humidity
    00:00 +5°C° 0.4 mm 5 mps 744 mmHg 81%
    01:00 +5°C° 0.6 mm 5 mps 743 mmHg 83%
    02:00 +5°C° 0.6 mm 5 mps 743 mmHg 85%
    03:00 +5°C° 0 mm 5 mps 742 mmHg 87%
    04:00 +5°C° 0.8 mm 5 mps 741 mmHg 88%
    05:00 +5°C° 0.8 mm 4 mps 741 mmHg 89%
    06:00 +5°C° 0.8 mm 4 mps 741 mmHg 90%
    07:00 +5°C° 0.3 mm 4 mps 740 mmHg 89%
    08:00 +5°C° 0.3 mm 4 mps 740 mmHg 89%
    09:00 +5°C° 0.3 mm 4 mps 740 mmHg 88%
    10:00 +6°C° 0 mm 4 mps 740 mmHg 84%
    11:00 +6°C° 0 mm 4 mps 740 mmHg 79%
    12:00 +6°C° 0 mm 4 mps 739 mmHg 74%
    13:00 +7°C° 0 mm 3 mps 739 mmHg 73%
    14:00 +7°C° 0 mm 3 mps 739 mmHg 72%
    15:00 +7°C° 0 mm 2 mps 738 mmHg 70%
    16:00 +6°C° 0 mm 2 mps 738 mmHg 73%
    17:00 +6°C° 0 mm 2 mps 737 mmHg 77%
    18:00 +6°C° 0 mm 1 mps 737 mmHg 80%
    19:00 +5°C° 0 mm 2 mps 736 mmHg 81%
    20:00 +5°C° 0 mm 2 mps 736 mmHg 82%
    21:00 +4°C° 0 mm 2 mps 735 mmHg 83%
    22:00 +4°C° 0 mm 2 mps 735 mmHg 84%
    23:00 +4°C° 0 mm 2 mps 734 mmHg 85%

    Tomorrow, 24 October, Wednesday

    Time Temperature Precipitation Wind Pressure Humidity
    00:00 +4°C° 0 mm 2 mps 733 mmHg 86%
    01:00 +4°C° 0 mm 2 mps 733 mmHg 87%
    02:00 +3°C° 0 mm 2 mps 732 mmHg 88%
    03:00 +3°C° 0 mm 2 mps 732 mmHg 89%
    04:00 +3°C° 0.1 mm 2 mps 731 mmHg 90%
    05:00 +3°C° 0.1 mm 2 mps 731 mmHg 92%
    06:00 +3°C° 0.1 mm 2 mps 730 mmHg 93%
    07:00 +3°C° 0.1 mm 2 mps 730 mmHg 92%
    08:00 +4°C° 0.1 mm 2 mps 730 mmHg 90%
    09:00 +3°C° 0.1 mm 3 mps 729 mmHg 89%
    10:00 +4°C° 0.1 mm 3 mps 729 mmHg 85%
    11:00 +4°C° 0.1 mm 3 mps 729 mmHg 81%
    12:00 +5°C° 0.1 mm 3 mps 729 mmHg 77%
    13:00 +5°C° 0.1 mm 3 mps 729 mmHg 76%
    14:00 +5°C° 0.1 mm 3 mps 729 mmHg 75%
    15:00 +5°C° 0.1 mm 3 mps 728 mmHg 74%
    16:00 +5°C° 0.1 mm 3 mps 728 mmHg 78%
    17:00 +4°C° 0.1 mm 3 mps 728 mmHg 82%
    18:00 +4°C° 0.1 mm 3 mps 728 mmHg 86%
    19:00 +4°C° 0.4 mm 3 mps 728 mmHg 87%
    20:00 +4°C° 0.4 mm 3 mps 728 mmHg 88%
    21:00 +4°C° 0.4 mm 4 mps 728 mmHg 89%
    22:00 +4°C° 0.7 mm 4 mps 727 mmHg 90%
    23:00 +4°C° 0.7 mm 4 mps 727 mmHg 91%

    Day after tomorrow, 25 October, Thursday

    Time Temperature Precipitation Wind Pressure Humidity
    00:00 +4°C° 0.7 mm 4 mps 727 mmHg 91%
    01:00 +4°C° 1.3 mm 4 mps 727 mmHg 91%
    02:00 +4°C° 1.3 mm 4 mps 726 mmHg 92%
    03:00 +4°C° 1.3 mm 4 mps 726 mmHg 92%
    04:00 +4°C° 0.8 mm 4 mps 726 mmHg 92%
    05:00 +4°C° 0.8 mm 3 mps 726 mmHg 91%
    06:00 +4°C° 0.8 mm 3 mps 726 mmHg 91%
    07:00 +4°C° 0.5 mm 3 mps 726 mmHg 91%
    08:00 +4°C° 0.5 mm 3 mps 726 mmHg 91%
    09:00 +4°C° 0.5 mm 3 mps 726 mmHg 90%
    10:00 +4°C° 0.3 mm 3 mps 725 mmHg 89%
    11:00 +4°C° 0.3 mm 3 mps 725 mmHg 87%
    12:00 +4°C° 0.3 mm 3 mps 725 mmHg 86%
    13:00 +4°C° 0.4 mm 4 mps 725 mmHg 86%
    14:00 +4°C° 0.4 mm 4 mps 725 mmHg 85%
    15:00 +3°C° 0.4 mm 4 mps 725 mmHg 85%
    16:00 +2°C° 0.3 mm 5 mps 725 mmHg 85%
    17:00 +2°C° 0.3 mm 5 mps 725 mmHg 85%
    18:00 +1°C° 0.3 mm 5 mps 725 mmHg 84%
    19:00 +1°C° 0.1 mm 5 mps 726 mmHg 84%
    20:00 +1°C° 0.1 mm 5 mps 726 mmHg 84%
    21:00 0°C° 0.1 mm 5 mps 726 mmHg 83%
    22:00 0°C° 0.1 mm 5 mps 727 mmHg 83%
    23:00 0°C° 0.1 mm 5 mps 727 mmHg 83%

    26 October, Friday

    Time Temperature Precipitation Wind Pressure Humidity
    00:00 0°C° 0.1 mm 5 mps 728 mmHg 83%
    01:00 0°C° 0.1 mm 5 mps 728 mmHg 84%
    02:00 0°C° 0.1 mm 5 mps 729 mmHg 84%
    03:00 -1°C° 0.1 mm 5 mps 729 mmHg 84%
    04:00 -1°C° 0 mm 5 mps 729 mmHg 85%
    05:00 -2°C° 0 mm 4 mps 729 mmHg 86%
    06:00 -2°C° 0 mm 4 mps 730 mmHg 88%
    07:00 -2°C° 0 mm 5 mps 730 mmHg 86%
    08:00 -1°C° 0 mm 5 mps 730 mmHg 85%
    09:00 0°C° 0 mm 5 mps 731 mmHg 84%
    10:00 0°C° 0 mm 5 mps 731 mmHg 81%
    11:00 -1°C° 0 mm 6 mps 732 mmHg 78%
    12:00 +1°C° 0 mm 6 mps 732 mmHg 76%
    13:00 +1°C° 0 mm 6 mps 732 mmHg 75%
    14:00 +1°C° 0 mm 6 mps 733 mmHg 75%
    15:00 +1°C° 0 mm 6 mps 733 mmHg 74%
    16:00 +1°C° 0 mm 5 mps 733 mmHg 76%
    17:00 +1°C° 0 mm 5 mps 733 mmHg 78%
    18:00 +1°C° 0 mm 4 mps 734 mmHg 80%
    19:00 0°C° 0 mm 4 mps 734 mmHg 81%
    20:00 0°C° 0 mm 4 mps 734 mmHg 82%
    21:00 0°C° 0 mm 4 mps 734 mmHg 84%
    22:00 0°C° 0 mm 4 mps 735 mmHg 84%
    23:00 0°C° 0 mm 5 mps 735 mmHg 85%

    27 October, Saturday

    Time Temperature Precipitation Wind Pressure Humidity
    00:00 0°C° 0 mm 5 mps 735 mmHg 85%
    01:00 0°C° 0 mm 5 mps 736 mmHg 84%
    02:00 0°C° 0 mm 5 mps 736 mmHg 84%
    03:00 -1°C° 0 mm 5 mps 737 mmHg 83%
    04:00 -1°C° 0 mm 4 mps 737 mmHg 84%
    05:00 -1°C° 0 mm 4 mps 738 mmHg 84%
    06:00 -1°C° 0 mm 4 mps 738 mmHg 85%
    07:00 -1°C° 0 mm 4 mps 738 mmHg 85%
    08:00 -1°C° 0 mm 4 mps 739 mmHg 85%
    09:00 -1°C° 0 mm 4 mps 739 mmHg 86%
    10:00 0°C° 0 mm 4 mps 739 mmHg 84%
    11:00 0°C° 0 mm 4 mps 739 mmHg 81%
    12:00 +1°C° 0 mm 4 mps 739 mmHg 79%
    13:00 +1°C° 0.4 mm 4 mps 738 mmHg 80%
    14:00 +1°C° 0.4 mm 4 mps 738 mmHg 81%
    15:00 +1°C° 0.4 mm 5 mps 737 mmHg 82%
    16:00 +1°C° 1 mm 5 mps 736 mmHg 83%
    17:00 +2°C° 1 mm 6 mps 735 mmHg 84%
    18:00 +2°C° 1 mm 6 mps 734 mmHg 85%
    19:00 +2°C° 0.9 mm 6 mps 733 mmHg 86%
    20:00 +3°C° 0.9 mm 6 mps 733 mmHg 86%
    21:00 +3°C° 0.9 mm 6 mps 732 mmHg 86%
    22:00 +3°C° 0 mm 6 mps 732 mmHg 87%
    23:00 +3°C° 0 mm 6 mps 732 mmHg 87%

    28 October, Sunday

    Time Temperature Precipitation Wind Pressure Humidity
    00:00 +2°C° 0 mm 5 mps 731 mmHg 87%
    01:00 +2°C° 0 mm 5 mps 732 mmHg 87%
    02:00 +2°C° 0 mm 5 mps 732 mmHg 86%
    03:00 +2°C° 0 mm 5 mps 732 mmHg 86%
    04:00 +2°C° 0.2 mm 6 mps 733 mmHg 85%
    05:00 +2°C° 0.2 mm 6 mps 734 mmHg 84%
    06:00 0°C° 0.2 mm 7 mps 734 mmHg 83%
    07:00 0°C° 0.1 mm 7 mps 736 mmHg 82%
    08:00 -1°C° 0.1 mm 7 mps 737 mmHg 81%
    09:00 -1°C° 0.1 mm 7 mps 738 mmHg 80%
    10:00 -1°C° 0 mm 7 mps 740 mmHg 78%
    11:00 -1°C° 0 mm 6 mps 741 mmHg 75%
    12:00 -1°C° 0 mm 6 mps 742 mmHg 73%
    13:00 -1°C° 0 mm 6 mps 744 mmHg 72%
    14:00 -1°C° 0 mm 6 mps 745 mmHg 72%
    15:00 0°C° 0 mm 5 mps 746 mmHg 71%
    16:00 0°C° 0 mm 5 mps 746 mmHg 73%
    17:00 0°C° 0 mm 4 mps 747 mmHg 75%
    18:00 -1°C° 0 mm 4 mps 748 mmHg 77%
    19:00 0°C° 0 mm 3 mps 748 mmHg 78%
    20:00 -1°C° 0 mm 3 mps 749 mmHg 80%
    21:00 -1°C° 0 mm 3 mps 750 mmHg 82%
    22:00 -2°C° 0 mm 3 mps 750 mmHg 83%
    23:00 -2°C° 0 mm 3 mps 751 mmHg 85%

    29 October, Monday

    Time Temperature Precipitation Wind Pressure Humidity
    00:00 -2°C° 0 mm 3 mps 752 mmHg 87%
    01:00 -2°C° 0 mm 2 mps 752 mmHg 87%
    02:00 -2°C° 0 mm 2 mps 752 mmHg 88%
    03:00 -2°C° 0 mm 2 mps 753 mmHg 88%
    04:00 -2°C° 0 mm 2 mps 753 mmHg 88%
    05:00 0°C° 0 mm 1 mps 753 mmHg 88%
    06:00 0°C° 0 mm 1 mps 753 mmHg 88%
    07:00 0°C° 0 mm 1 mps 754 mmHg 86%
    08:00 0°C° 0 mm 1 mps 754 mmHg 85%
    09:00 +1°C° 0 mm 1 mps 755 mmHg 83%
    10:00 +1°C° 0 mm 1 mps 755 mmHg 80%
    11:00 +2°C° 0 mm 1 mps 755 mmHg 77%
    12:00 +2°C° 0 mm 1 mps 756 mmHg 75%
    13:00 +2°C° 0 mm 1 mps 756 mmHg 74%
    14:00 +2°C° 0 mm 1 mps 756 mmHg 74%
    15:00 +2°C° 0 mm 1 mps 755 mmHg 73%
    16:00 +2°C° 0.1 mm 1 mps 755 mmHg 76%
    17:00 +2°C° 0.1 mm 1 mps 755 mmHg 78%
    18:00 -1°C° 0.1 mm 2 mps 755 mmHg 81%
    19:00 -1°C° 0.2 mm 2 mps 755 mmHg 82%
    20:00 -1°C° 0.2 mm 3 mps 755 mmHg 83%
    21:00 -1°C° 0.2 mm 3 mps 755 mmHg 84%
    22:00 -2°C° 0.3 mm 4 mps 755 mmHg 84%
    23:00 -2°C° 0.3 mm 4 mps 755 mmHg 85%
    Show more